Hourly Data Report for October 02, 2017

All times are specified in Local Standard Time (LST). Add 1 hour to adjust for Daylight Saving Time where and when it is observed.

SALMON ARM CS
BRITISH COLUMBIA

50°42'10.800" N
119°17'26.440" W
350.50 m
116FRMN
71218
WSL

Download Data

Hourly Data (October 2017)
Hourly Data Report for October 2, 2017
Temp Definition
°C
Dew Point Temp Definition
°C
Rel Hum Definition
%
Wind Dir Definition
10's deg

Wind Spd Definition
km/h
Visibility Definition
km
Stn Press Definition
kPa
Hmdx Definition


Wind Chill Definition


Weather Definition


TIME
00:00 5.7 3.3 85 18 6   97.78     LegendNANA
01:00 4.5 2.6 88 18 7   97.81     LegendNANA
02:00 3.8 2.2 89 19 6   97.85     LegendNANA
03:00 4.3 2.6 89 19 5   97.88     LegendNANA
04:00 4.3 2.9 91 18 7   97.92     LegendNANA
05:00 3.0 2.1 93 19 5   97.97     LegendNANA
06:00 2.5 1.9 96 19 4   98.00     LegendNANA
07:00 3.0 2.4 96 18 7   98.07     LegendNANA
08:00 4.5 3.0 90 18 7   98.10     LegendNANA
09:00 7.4 4.6 83 23 3   98.13     LegendNANA
10:00 10.6 3.1 60 14 5   98.13     LegendNANA
11:00 13.8 2.4 46 15 7   98.13     LegendNANA
12:00 14.6 4.0 49 5 5   98.15     LegendNANA
13:00 14.4 2.7 46 7 3   98.17     LegendNANA
14:00 14.5 4.6 52 2 8   98.16     LegendNANA
15:00 15.3 3.0 44 35 4   98.14     LegendNANA
16:00 15.1 2.5 43 30 3   98.15     LegendNANA
17:00 10.6 4.7 67 23 2   98.18     LegendNANA
18:00 7.9 4.6 80 16 3   98.24     LegendNANA
19:00 6.5 3.0 78 17 7   98.29     LegendNANA
20:00 4.8 2.1 83 19 3   98.35     LegendNANA
21:00 3.2 1.1 86 20 3   98.41     LegendNANA
22:00 3.7 1.2 84 20 5   98.46     LegendNANA
23:00 3.0 1.0 87 20 5   98.48     LegendNANA

Notes on Data Quality.

Legend

  • E = Estimated
  • M = Missing
  • NA = Not Available
  • ‡ = Partner data that is not subject to review by the National Climate Archives
Date modified: